DW9672 Weather Reports


time (UTC)temp
C
wind
direction
speed
KPH
gust
KPH
rain 1hr
cm
rain 24hr
cm
rain mn
cm
humidity
%
barometer
mb
20260906123038 20 62 0.0 0.0 0.00 0.03 0.00 97 1019.2
20260906121519 20 62 0.0 3.2 0.00 0.03 0.00 96 1018.9
20260906120057 20 53 0.0 0.0 0.00 0.03 0.00 96 1018.3
20260906114604 20 53 0.0 0.0 0.00 0.03 0.00 96 1018.2
20260906113044 20 54 0.0 6.4 0.00 0.03 0.00 96 1018.1
20260906111543 20 67 0.0 8.0 0.00 0.03 0.00 96 1017.9
20260906110040 20 42 1.6 6.4 0.00 0.03 0.00 95 1017.7
20260906104538 21 63 0.0 4.8 0.00 0.03 0.00 95 1017.4
20260906103037 21 33 0.0 4.8 0.00 0.03 0.00 95 1017.3
20260906101536 21 41 0.0 8.0 0.00 0.03 0.00 95 1017.3
20260906100035 21 47 0.0 4.8 0.00 0.03 0.00 95 1017.2
20260906094533 21 11 0.0 4.8 0.00 0.03 0.00 95 1017.1
20260906093021 21 22 3.2 8.0 0.00 0.03 0.00 95 1017.1
20260906091517 21 46 1.6 6.4 0.00 0.03 0.00 95 1017.2
20260906090007 21 46 0.0 6.4 0.00 0.03 0.00 95 1017.0
20260906084504 21 25 1.6 6.4 0.00 0.03 0.00 95 1017.0
20260906083004 21 31 0.0 4.8 0.00 0.03 0.00 95 1016.9
20260906081508 21 32 0.0 4.8 0.00 0.03 0.00 95 1016.8
20260906080006 21 19 0.0 0.0 0.00 0.03 0.00 94 1016.9
20260906074606 21 35 0.0 3.2 0.00 0.03 0.00 94 1017.1
20260906073058 21 35 0.0 0.0 0.00 0.03 0.00 93 1017.0
20260906071557 21 34 0.0 0.0 0.00 0.03 0.00 93 1017.1
20260906070039 22 22 0.0 0.0 0.00 0.03 0.00 93 1017.2
20260906064539 22 23 0.0 3.2 0.00 0.03 0.00 92 1017.3
20260906063021 22 28 0.0 0.0 0.00 0.03 0.00 92 1017.4
20260906061518 22 28 0.0 3.2 0.00 0.03 0.00 92 1017.2
20260906060008 22 44 3.2 6.4 0.00 0.03 0.00 91 1017.1
20260906054506 22 42 0.0 3.2 0.00 0.03 0.00 91 1017.1
20260906053005 22 56 0.0 4.8 0.00 0.03 0.00 91 1017.0
20260906051505 22 66 0.0 4.8 0.00 0.03 0.00 90 1016.9
20260906050004 22 63 0.0 6.4 0.00 0.03 0.00 90 1016.7
20260906044501 22 123 0.0 3.2 0.00 0.03 0.00 90 1016.5
20260906043103 22 82 3.2 9.7 0.00 0.03 0.00 90 1016.4
20260906041601 22 14 0.0 9.7 0.00 0.03 0.00 90 1016.2
20260906040046 22 139 0.0 12.9 0.00 0.03 0.00 90 1016.2
20260906034545 22 140 0.0 9.7 0.00 0.03 0.03 91 1016.0
20260906033057 22 61 0.0 4.8 0.00 0.03 0.03 90 1016.0
20260906031543 22 80 3.2 11.3 0.00 0.03 0.03 90 1016.0
20260906030045 22 82 0.0 9.7 0.00 0.03 0.03 89 1016.1
20260906024545 23 136 3.2 11.3 0.00 0.03 0.03 89 1016.0
20260906023048 23 102 0.0 1.6 0.00 0.03 0.03 89 1015.9
20260906021536 23 42 0.0 1.6 0.00 0.03 0.03 89 1015.8
20260906020016 24 40 0.0 6.4 0.00 0.03 0.03 88 1015.4
20260906014515 24 65 0.0 9.7 0.00 0.03 0.03 88 1015.2
20260906013115 25 20 1.6 9.7 0.00 0.03 0.03 88 1014.9
20260906011605 25 26 0.0 0.0 0.00 0.03 0.03 87 1015.0
20260906010058 25 26 0.0 0.0 0.00 0.03 0.03 86 1015.0
20260906004539 25 26 0.0 3.2 0.00 0.05 0.03 85 1015.0
20260906003038 26 32 0.0 0.0 0.00 0.05 0.03 83 1014.8
20260906001521 26 32 0.0 4.8 0.00 0.05 0.03 82 1014.8
20260906000036 26 36 1.6 9.7 0.00 0.05 0.03 81 1014.9
20260905234507 26 29 1.6 9.7 0.00 0.05 0.03 81 1014.8
20260905233006 27 103 1.6 9.7 0.00 0.05 0.03 80 1014.5
20260905231505 27 96 3.2 17.7 0.00 0.05 0.03 79 1014.5
20260905230004 28 60 6.4 16.1 0.00 0.05 0.03 77 1014.5
20260905224504 28 51 6.4 17.7 0.00 0.05 0.03 77 1014.3
20260905223007 29 58 8.0 16.1 0.00 0.05 0.03 75 1014.1
20260905221502 30 19 3.2 17.7 0.00 0.05 0.03 76 1014.0
20260905220003 30 74 6.4 17.7 0.00 0.05 0.03 75 1014.0
20260905214547 30 38 6.4 14.5 0.00 0.05 0.03 73 1013.7
20260905213047 30 355 1.6 16.1 0.00 0.05 0.03 74 1013.6
20260905211552 30 67 4.8 14.5 0.00 0.05 0.03 72 1013.6
20260905210048 31 25 6.4 16.1 0.00 0.05 0.03 72 1013.4
20260905204547 31 48 8.0 16.1 0.00 0.05 0.03 73 1013.4
20260905201548 31 52 8.0 14.5 0.00 0.05 0.03 75 1013.7
20260905200048 31 92 3.2 14.5 0.00 0.05 0.03 75 1013.8
20260905194549 31 15 11.3 20.9 0.00 0.05 0.03 74 1013.7
20260905191550 31 9 8.0 16.1 0.03 0.05 0.03 73 1013.7
20260905190047 31 355 6.4 16.1 0.03 0.05 0.03 74 1013.8
20260905184608 31 28 4.8 11.3 0.03 0.05 0.03 73 1013.9
20260905181523 30 23 4.8 11.3 0.00 0.03 0.00 76 1014.2
20260905180027 31 49 6.4 16.1 0.00 0.03 0.00 76 1014.3
20260905174508 31 43 6.4 11.3 0.00 0.05 0.00 77 1014.2
20260905173002 31 63 3.2 14.5 0.00 0.05 0.00 76 1014.3
20260905171545 31 13 6.4 11.3 0.00 0.05 0.00 78 1014.4
20260905170045 30 19 4.8 12.9 0.00 0.05 0.00 78 1014.5
20260905164526 31 355 6.4 14.5 0.00 0.05 0.00 77 1014.5
20260905163024 31 66 0.0 8.0 0.00 0.05 0.00 76 1014.5
20260905161504 30 23 6.4 12.9 0.00 0.05 0.00 77 1014.5
20260905160002 30 42 0.0 12.9 0.00 0.05 0.00 78 1014.4
20260905154606 30 5 0.0 9.7 0.00 0.05 0.00 82 1014.3
20260905153039 29 40 1.6 9.7 0.00 0.05 0.00 84 1014.3
20260905151519 29 346 1.6 11.3 0.00 0.05 0.00 85 1014.2
20260905150017 28 360 4.8 9.7 0.00 0.05 0.00 87 1014.1
20260905144507 28 22 8.0 14.5 0.00 0.05 0.00 87 1014.1
20260905143003 28 79 8.0 14.5 0.00 0.05 0.00 87 1014.1
20260905141501 28 48 1.6 9.7 0.00 0.05 0.00 87 1013.9
20260905140058 27 5 0.0 4.8 0.00 0.05 0.00 90 1013.9
20260905134554 27 5 0.0 3.2 0.00 0.05 0.00 92 1013.9
20260905133051 26 31 1.6 4.8 0.00 0.05 0.00 95 1014.0
20260905131548 25 30 1.6 6.4 0.00 0.05 0.00 97 1014.3
20260905130049 25 5 0.0 0.0 0.00 0.05 0.00 99 1013.9
20260905124536 23 5 0.0 0.0 0.00 0.05 0.00 99 1013.7